STARLINK-34873 (65346 NORAD) Tracking and Keplerian Element Data

This shows tracking and keplerian element data for the satellite.

Feedback or suggestion? Click here.




ElementValue
Catalog65346
NameSTARLINK-34873
Epoch Orbit1890
Epoch Day353.89066112
Epoch Year2025
RAAN217.0869
Inclination53.1578
Eccentricity0.0005019
Argument of Perigee173.8255
Mean Anonmoly186.2809
Mean Motion15.30210772
Decay Rate9.737E-05
L11 65346U 25189Z 25353.89066112 .00009737 00000+0 34028-3 0 9995
L22 65346 53.1578 217.0869 0005019 173.8255 186.2809 15.30210772 18904



Live tracking and technical data element details for STARLINK-34873 (NORAD 65346). STARLINK-34873 can be tracked NOW for your location showing map with azimuth and elevation plus other details from your city location.







IsCatalogInMostPopularTable: catalog: 65346, numindb: 4
Update: records affected: 1



GetName: 65346 STARLINK-34873

Hit Count: updated at: Sun, 08 Feb 2026 09:05:55 GMT